This is the latest recevied weather packets stored in our database for station/object KP4CRN. If no packets are shown the sender has not sent any weather packets the latest 10 day(s).
| Time | Temp. | Humidity | Pressure | Rain* | Wind** | Luminosity | Snow |
|---|---|---|---|---|---|---|---|
| 1777835170 | 32.22° C | 58% | 1015.8 hPa | 0 mm | - | 590 W/m² | - |
| 1777834866 | 32.22° C | 57% | 1015.7 hPa | 0 mm | - | 604 W/m² | - |
| 1777834563 | 32.22° C | 58% | 1015.7 hPa | 0 mm | - | 621 W/m² | - |
| 1777834263 | 32.22° C | 58% | 1015.8 hPa | 0 mm | - | 632 W/m² | - |
| 1777833958 | 32.22° C | 59% | 1015.9 hPa | 0 mm | - | 646 W/m² | - |
| 1777833655 | 32.22° C | 59% | 1016 hPa | 0 mm | - | 656 W/m² | - |
| 1777833352 | 32.22° C | 59% | 1016.1 hPa | 0 mm | - | 670 W/m² | - |
| 1777833049 | 32.78° C | 57% | 1016.1 hPa | 0 mm | - | 678 W/m² | - |
| 1777832747 | 32.22° C | 57% | 1016.2 hPa | 0 mm | - | 689 W/m² | - |
| 1777832445 | 32.78° C | 56% | 1016 hPa | 0 mm | - | 700 W/m² | - |
| 1777832142 | 32.78° C | 57% | 1016 hPa | 0 mm | - | 711 W/m² | - |
| 1777831838 | 32.22° C | 57% | 1016.2 hPa | 0 mm | - | 677 W/m² | - |
| 1777831535 | 32.78° C | 57% | 1016.2 hPa | 0 mm | - | 155 W/m² | - |
| 1777831232 | 32.22° C | 56% | 1016.2 hPa | 0 mm | - | 135 W/m² | - |
| 1777830924 | 32.78° C | 56% | 1016.2 hPa | 0 mm | - | 226 W/m² | - |
| 1777830621 | 32.78° C | 54% | 1016.4 hPa | 0 mm | - | 80 W/m² | - |
| 1777830319 | 32.22° C | 55% | 1016.4 hPa | 0 mm | - | 63 W/m² | - |
| 1777830015 | 32.22° C | 55% | 1016.4 hPa | 0 mm | - | 66 W/m² | - |
| 1777829710 | 32.22° C | 58% | 1016.6 hPa | 0 mm | - | 67 W/m² | - |
| 1777829406 | 32.22° C | 58% | 1016.6 hPa | 0 mm | - | 68 W/m² | - |
| 1777829104 | 32.78° C | 58% | 1016.7 hPa | 0 mm | - | 68 W/m² | - |
| 1777828801 | 32.22° C | 60% | 1016.6 hPa | 0 mm | - | 67 W/m² | - |
| 1777828497 | 32.22° C | 59% | 1016.7 hPa | 0 mm | - | 68 W/m² | - |
| 1777828195 | 32.22° C | 61% | 1016.7 hPa | 0 mm | - | 71 W/m² | - |
| 1777827891 | 32.22° C | 62% | 1017 hPa | 0 mm | - | 71 W/m² | - |
* Rain latest hour (hover to see other rain measurements)
** Current wind speed in m/s (hover to see current wind gust speed)